TimeEDT,TemperatureF,Dew PointF,Humidity,Sea Level PressureIn,VisibilityMPH,Wind Direction,Wind SpeedMPH,Gust SpeedMPH,PrecipitationIn,Events,Conditions,WindDirDegrees,DateUTC
12:15 AM,44.6,42.8,93,29.68,4.0,North,3.5,-,0.01,,Overcast,350,2013-04-01 04:15:00
12:18 AM,44.6,42.8,93,29.68,3.0,Calm,Calm,-,0.01,,Overcast,0,2013-04-01 04:18:00
12:33 AM,44.6,42.8,93,29.67,3.0,North,3.5,-,0.01,,Overcast,350,2013-04-01 04:33:00
12:53 AM,43.0,42.1,97,29.66,4.0,North,3.5,-,0.01,,Overcast,350,2013-04-01 04:53:00
1:06 AM,42.8,42.8,100,29.67,5.0,Calm,Calm,-,N/A,,Overcast,0,2013-04-01 05:06:00
1:14 AM,42.8,42.8,100,29.67,5.0,NNW,3.5,-,N/A,,Overcast,330,2013-04-01 05:14:00
1:53 AM,43.0,42.1,97,29.65,5.0,NNW,3.5,-,N/A,,Overcast,340,2013-04-01 05:53:00
2:32 AM,42.8,41.0,93,29.65,5.0,Calm,Calm,-,N/A,,Overcast,0,2013-04-01 06:32:00
2:53 AM,43.0,42.1,97,29.64,4.0,Calm,Calm,-,N/A,,Overcast,0,2013-04-01 06:53:00
3:21 AM,42.8,41.0,93,29.65,2.5,Calm,Calm,-,N/A,,Scattered Clouds,0,2013-04-01 07:21:00
3:45 AM,42.8,41.0,93,29.66,2.5,Calm,Calm,-,N/A,,Mostly Cloudy,0,2013-04-01 07:45:00
3:49 AM,42.8,41.0,93,29.66,3.0,Calm,Calm,-,N/A,,Mostly Cloudy,0,2013-04-01 07:49:00
3:53 AM,41.0,41.0,100,29.65,3.0,Calm,Calm,-,N/A,,Mostly Cloudy,0,2013-04-01 07:53:00
4:00 AM,42.8,41.0,93,29.66,2.5,Calm,Calm,-,N/A,,Overcast,0,2013-04-01 08:00:00
4:10 AM,42.8,41.0,93,29.67,2.5,Calm,Calm,-,N/A,,Overcast,0,2013-04-01 08:10:00
4:36 AM,42.8,41.0,93,29.66,3.0,Calm,Calm,-,N/A,,Overcast,0,2013-04-01 08:36:00
4:53 AM,42.1,41.0,96,29.66,4.0,WSW,3.5,-,N/A,,Mostly Cloudy,240,2013-04-01 08:53:00
5:28 AM,42.8,41.0,93,29.67,5.0,Calm,Calm,-,N/A,,Mostly Cloudy,0,2013-04-01 09:28:00
5:53 AM,43.0,42.1,97,29.68,5.0,Calm,Calm,-,N/A,,Overcast,0,2013-04-01 09:53:00
6:53 AM,42.1,39.9,92,29.66,4.0,Calm,Calm,-,N/A,,Clear,0,2013-04-01 10:53:00
7:08 AM,42.8,39.2,87,29.67,2.5,Calm,Calm,-,N/A,,Clear,0,2013-04-01 11:08:00
7:15 AM,42.8,39.2,87,29.67,6.0,Calm,Calm,-,N/A,,Clear,0,2013-04-01 11:15:00
7:53 AM,43.0,42.1,97,29.67,6.0,SW,4.6,-,N/A,,Clear,230,2013-04-01 11:53:00
8:53 AM,45.0,42.1,90,29.66,8.0,SW,5.8,-,N/A,,Clear,230,2013-04-01 12:53:00
9:53 AM,48.0,42.1,80,29.64,10.0,SSW,5.8,-,N/A,,Clear,200,2013-04-01 13:53:00
10:53 AM,51.1,43.0,74,29.62,10.0,SW,9.2,-,N/A,,Partly Cloudy,230,2013-04-01 14:53:00
11:53 AM,55.9,42.1,60,29.60,10.0,SW,12.7,19.6,N/A,,Scattered Clouds,220,2013-04-01 15:53:00
12:53 PM,57.0,39.9,53,29.59,10.0,SW,12.7,25.3,0.00,Rain,Light Rain,230,2013-04-01 16:53:00
1:28 PM,55.4,37.4,51,29.61,10.0,WNW,18.4,28.8,0.00,,Mostly Cloudy,300,2013-04-01 17:28:00
1:53 PM,54.0,37.0,53,29.60,10.0,WNW,15.0,21.9,0.00,,Overcast,290,2013-04-01 17:53:00
3:53 PM,46.0,30.9,56,29.70,10.0,West,16.1,23.0,0.00,,Overcast,280,2013-04-01 19:53:00
4:53 PM,46.9,26.1,44,29.70,10.0,NW,17.3,28.8,N/A,,Mostly Cloudy,310,2013-04-01 20:53:00
5:53 PM,48.9,23.0,36,29.70,10.0,WNW,13.8,24.2,N/A,,Partly Cloudy,300,2013-04-01 21:53:00
6:53 PM,46.0,18.0,33,29.73,10.0,NW,15.0,24.2,N/A,,Clear,310,2013-04-01 22:53:00
7:53 PM,42.1,12.9,31,29.78,10.0,NW,12.7,27.6,N/A,,Clear,310,2013-04-01 23:53:00
8:53 PM,39.0,10.0,30,29.82,10.0,NW,12.7,20.7,N/A,,Clear,310,2013-04-02 00:53:00
9:53 PM,37.9,12.0,35,29.85,10.0,WNW,12.7,20.7,N/A,,Clear,300,2013-04-02 01:53:00
10:53 PM,36.0,14.0,41,29.88,10.0,WNW,8.1,16.1,N/A,,Clear,300,2013-04-02 02:53:00
11:53 PM,35.1,15.1,44,29.89,10.0,WNW,9.2,-,N/A,,Clear,300,2013-04-02 03:53:00